Weather History for K36U - November, 2013

Change the Weather History Date:

Friday, November 1, 2013

  Actual Average (KPVU) Record (KPVU)
Temperature  
Mean Temperature 42 °F -  
Max Temperature 53 °F 50 °F 73 °F (1988)
Min Temperature 30 °F 30 °F 23 °F (2002)
Degree Days  
Heating Degree Days 24    
Moisture  
Dew Point 32 °F    
Average Humidity 73    
Maximum Humidity 93    
Minimum Humidity 38    
Precipitation  
Precipitation 0.00 in - - ()
Sea Level Pressure  
Sea Level Pressure 30.26 in    
Wind  
Wind Speed 2 mph (South)    
Max Wind Speed 10 mph    
Max Gust Speed -    
Visibility 10 miles    
Events      
Averages and records for this station are not official NWS values.
T = Trace of Precipitation, MM = Missing Value Source: NWS Daily Summary

Daily Weather History Graph

Daily Weather History Graph

Search for Another Location

Airport or City:

Trip Planner

Search our weather history database for the weather conditions in past years. The results will help you decide how hot, cold, wet, or windy it might be!

Date:

Astronomy

Nov. 01, 2013 Rise Set
Actual Time 7:55 AM MDT 6:22 PM MDT
Civil Twilight 7:27 AM MDT 6:50 PM MDT
Nautical Twilight 6:55 AM MDT 7:22 PM MDT
Astronomical Twilight 6:23 AM MDT 7:54 PM MDT
Moon 5:51 AM MDT (11/1) 5:17 PM MDT (11/1)
Length of Visible Light 11h 22m
Length of Day
10h 26m
Waning Crescent, 4% of the Moon is Illuminated
Nov 1
Waning Crescent
Nov 3
New
Nov 9
First Quarter
Nov 17
Full
Nov 25
Last Quarter

Hourly Weather History & Observations

Time (MDT) Temp. Windchill Dew Point Humidity Pressure Visibility Wind Dir Wind Speed Gust Speed Precip Events Conditions
12:15 AM 39.2 °F - 33.8 °F 81% 30.18 in 10.0 mi Calm Calm - N/A   Overcast
12:35 AM 39.2 °F - 32.0 °F 75% 30.18 in 10.0 mi Calm Calm - N/A   Overcast
12:55 AM 37.4 °F - 32.0 °F 81% 30.18 in 10.0 mi Calm Calm - N/A   Overcast
1:15 AM 37.4 °F 34.9 °F 33.8 °F 87% 30.18 in 10.0 mi North 3.5 mph - N/A   Overcast
1:35 AM 37.4 °F - 33.8 °F 87% 30.18 in 10.0 mi Calm Calm - N/A   Overcast
1:55 AM 37.4 °F - 33.8 °F 87% 30.18 in 10.0 mi Calm Calm - N/A   Overcast
2:15 AM 37.4 °F 34.9 °F 33.8 °F 87% 30.19 in 10.0 mi East 3.5 mph - N/A   Overcast
2:35 AM 37.4 °F 33.8 °F 33.8 °F 87% 30.20 in 10.0 mi South 4.6 mph - N/A   Overcast
2:55 AM 37.4 °F 33.8 °F 32.0 °F 81% 30.20 in 10.0 mi South 4.6 mph - N/A   Overcast
3:15 AM 39.2 °F - 32.0 °F 75% 30.20 in 10.0 mi Calm Calm - N/A   Overcast
3:35 AM 37.4 °F - 32.0 °F 81% 30.21 in 10.0 mi Calm Calm - N/A   Overcast
3:55 AM 37.4 °F 34.9 °F 33.8 °F 87% 30.22 in 10.0 mi North 3.5 mph - N/A   Overcast
4:15 AM 37.4 °F 33.8 °F 32.0 °F 81% 30.21 in 10.0 mi SE 4.6 mph - N/A   Overcast
4:35 AM 35.6 °F 32.8 °F 32.0 °F 87% 30.22 in 10.0 mi East 3.5 mph - N/A   Overcast
4:55 AM 35.6 °F 31.7 °F 32.0 °F 87% 30.22 in 10.0 mi South 4.6 mph - N/A   Overcast
5:15 AM 37.4 °F 34.9 °F 32.0 °F 81% 30.23 in 10.0 mi WNW 3.5 mph - N/A   Overcast
5:35 AM 35.6 °F - 32.0 °F 87% 30.23 in 10.0 mi Calm Calm - N/A   Overcast
5:55 AM 33.8 °F 30.8 °F 32.0 °F 93% 30.24 in 10.0 mi SE 3.5 mph - N/A   Mostly Cloudy
6:15 AM 35.6 °F - 32.0 °F 87% 30.25 in 10.0 mi Calm Calm - N/A   Mostly Cloudy
6:35 AM 35.6 °F - 32.0 °F 87% 30.26 in 10.0 mi Calm Calm - N/A   Overcast
6:55 AM 37.4 °F - 33.8 °F 87% 30.26 in 10.0 mi Calm Calm - N/A   Overcast
7:15 AM 37.4 °F - 32.0 °F 81% 30.26 in 10.0 mi Calm Calm - N/A   Overcast
7:35 AM 37.4 °F - 33.8 °F 87% 30.27 in 10.0 mi Calm Calm - N/A   Overcast
7:55 AM 37.4 °F - 33.8 °F 87% 30.28 in 10.0 mi Calm Calm - N/A   Overcast
8:15 AM 37.4 °F - 33.8 °F 87% 30.29 in 10.0 mi Calm Calm - N/A   Overcast
8:35 AM 37.4 °F - 33.8 °F 87% 30.29 in 10.0 mi Calm Calm - N/A   Overcast
8:55 AM 37.4 °F - 33.8 °F 87% 30.31 in 10.0 mi Calm Calm - N/A   Overcast
9:15 AM 37.4 °F - 33.8 °F 87% 30.31 in 10.0 mi Calm Calm - N/A   Overcast
9:35 AM 39.2 °F - 35.6 °F 87% 30.32 in 10.0 mi Calm Calm - N/A   Mostly Cloudy
9:55 AM 41.0 °F - 33.8 °F 76% 30.32 in 10.0 mi Calm Calm - N/A   Scattered Clouds
10:15 AM 42.8 °F - 33.8 °F 70% 30.32 in 10.0 mi Calm Calm - N/A   Scattered Clouds
10:35 AM 44.6 °F - 33.8 °F 66% 30.32 in 10.0 mi Calm Calm - N/A   Scattered Clouds
10:55 AM 46.4 °F - 33.8 °F 62% 30.32 in 10.0 mi Calm Calm - N/A   Mostly Cloudy
11:15 AM 48.2 °F - 32.0 °F 54% 30.32 in 10.0 mi Calm Calm - N/A   Scattered Clouds
11:35 AM 48.2 °F - 32.0 °F 54% 30.32 in 10.0 mi Calm Calm - N/A   Scattered Clouds
11:55 AM 50.0 °F - 32.0 °F 50% 30.32 in 10.0 mi North 4.6 mph - N/A   Clear
12:15 PM 50.0 °F - 32.0 °F 50% 30.32 in 10.0 mi South 3.5 mph - N/A   Clear
12:35 PM 50.0 °F - 32.0 °F 50% 30.31 in 10.0 mi Calm Calm - N/A   Clear
12:55 PM 51.8 °F - 30.2 °F 44% 30.31 in 10.0 mi SW 5.8 mph - N/A   Clear
1:15 PM 51.8 °F - 30.2 °F 44% 30.30 in 10.0 mi Calm Calm - N/A   Clear
1:35 PM 53.6 °F - 30.2 °F 41% 30.30 in 10.0 mi SE 4.6 mph - N/A   Clear
1:55 PM 53.6 °F - 30.2 °F 41% 30.28 in 10.0 mi South 3.5 mph - N/A   Clear
2:15 PM 51.8 °F - 30.2 °F 44% 30.28 in 10.0 mi NNW 3.5 mph - N/A   Clear
4:15 PM 53.6 °F - 28.4 °F 38% 30.26 in 10.0 mi Calm Calm - N/A   Clear
4:35 PM 53.6 °F - 28.4 °F 38% 30.26 in 10.0 mi SSW 3.5 mph - N/A   Clear
4:55 PM 53.6 °F - 28.4 °F 38% 30.25 in 10.0 mi WSW 3.5 mph - N/A   Clear
5:15 PM 53.6 °F - 28.4 °F 38% 30.25 in 10.0 mi West 3.5 mph - N/A   Clear
5:35 PM 53.6 °F - 32.0 °F 44% 30.25 in 10.0 mi WSW 9.2 mph - N/A   Clear
5:55 PM 50.0 °F - 32.0 °F 50% 30.25 in 10.0 mi SW 10.4 mph - N/A   Clear
6:15 PM 46.4 °F 41.9 °F 32.0 °F 57% 30.25 in 10.0 mi SW 9.2 mph - N/A   Clear
6:35 PM 46.4 °F 41.9 °F 32.0 °F 57% 30.26 in 10.0 mi SW 9.2 mph - N/A   Clear
6:55 PM 44.6 °F 40.2 °F 32.0 °F 61% 30.27 in 10.0 mi SW 8.1 mph - N/A   Clear
7:15 PM 44.6 °F 40.2 °F 32.0 °F 61% 30.28 in 10.0 mi SSW 8.1 mph - N/A   Clear
7:35 PM 42.8 °F 41.1 °F 32.0 °F 66% 30.28 in 10.0 mi SW 3.5 mph - N/A   Clear
7:55 PM 39.2 °F 35.9 °F 32.0 °F 75% 30.28 in 10.0 mi East 4.6 mph - N/A   Clear
8:15 PM 37.4 °F 34.9 °F 30.2 °F 75% 30.28 in 10.0 mi East 3.5 mph - N/A   Clear
8:35 PM 35.6 °F 32.8 °F 30.2 °F 81% 30.28 in 10.0 mi ESE 3.5 mph - N/A   Clear
8:55 PM 33.8 °F - 30.2 °F 87% 30.28 in 10.0 mi Calm Calm - N/A   Clear
9:15 PM 33.8 °F 28.6 °F 30.2 °F 87% 30.28 in 10.0 mi ESE 5.8 mph - N/A   Clear
9:35 PM 33.8 °F - 28.4 °F 81% 30.28 in 10.0 mi Calm Calm - N/A   Clear
9:55 PM 32.0 °F - 30.2 °F 93% 30.28 in 10.0 mi Calm Calm - N/A   Clear
10:15 PM 32.0 °F - 28.4 °F 87% 30.28 in 10.0 mi Calm Calm - N/A   Clear
10:35 PM 30.2 °F 26.7 °F 28.4 °F 93% 30.28 in 10.0 mi SE 3.5 mph - N/A   Clear
10:55 PM 32.0 °F 28.7 °F 28.4 °F 87% 30.29 in 10.0 mi South 3.5 mph - N/A   Clear
11:15 PM 32.0 °F 28.7 °F 28.4 °F 87% 30.29 in 10.0 mi South 3.5 mph - N/A   Clear
11:35 PM 32.0 °F - 28.4 °F 87% 30.29 in 10.0 mi Calm Calm - N/A   Clear
11:55 PM 30.2 °F - 28.4 °F 93% 30.29 in 10.0 mi Calm Calm - N/A   Clear